METEOR 2-8 DEB

Satellite information

Favourite Embed

Satellite Type and Status

DEBRISIN ORBIT

Key statistics

Satellite METEOR 2-8 DEB at a glance.

Uptime

15919

Days in orbit

Revolutions

≈ 14.3

Per day

Orbit

LEO

Low Earth Orbit

Inclination

82.5

Latest

Satellite identification and parameters

Extended collection of information and parameters for METEOR 2-8 DEB.

Object identification

Identified? True

Debris? True

Object name: METEOR 2-8 DEB

International designator: 1982-025BC

Object number (NORAD): 36865

Object ID (CCSDS): 36865

Country: COMMONWEALTH OF INDEPENDENT STATES (CIS)

Current information (Y/N): Y

RCS size: SMALL

Orbital parameters

Period: 100.888 minutes

Inclination: 82.5389 deg

SMA: 7178.83 km

Apoapsis: 813.211 km

Periapsis: 788.179 km

RAAN: 29.6577 deg

Eccentricy: 0.0017434

Argument of periapsis: 261.7049 deg

Mean anomaly: 98.2158 deg

Mean motion: 14.27322984 rev/day

Mean motion (dot): 0.00007565 rev/day2

B* drag term: 0.0030784 1/REarth

Two-line elements (TLE)

Creation date: Oct. 23, 2025, 10:06 p.m.

Reference frame: TEME

Reference center: EARTH

Epoch: Oct. 23, 2025, 12:52 p.m. UTC

TLE line 0: 0 METEOR 2-8 DEB

TLE line 1: 1 36865U 82025BC 25296.53616341 .00007565 00000-0 30784-2 0 9995

TLE line 2: 2 36865 82.5389 29.6577 0017434 261.7049 98.2158 14.27322984105145

Live tracking on map

Real-time ground track for satellite METEOR 2-8 DEB.

In-orbit conjunctions

A list of the most updated potential collisions computed for object METEOR 2-8 DEB.

Target Orbit TCA Probability of collision Miss distance Type
CZ-6A DEB SSO 2025-09-12 09:32:47 0.0001241839 234.0 (m) DEBRIS
ARIANE 5 R/B SSO 2025-08-26 01:35:25 0.000145335 172.0 (m) ROCKET BODY
FENGYUN 1C DEB SSO 2024-11-10 21:13:12 0.0006865257 166.0 (m) DEBRIS

Associated space launch

Second generation soviet meteorological satellite

METEOR 2-8 DEB was lifted into orbit during the mission ‘Tsiklon-3 | Meteor-2 8’, on board a Tsiklon-3 space rocket.

The launch took place on March 25, 1982, 9:50 a.m. from 32/1.

For more information about the launch, click the button.

Launch to space Tsiklon-3 | Meteor-2 8
Tsiklon-3 | Meteor-2 8

Agency: N/A

Status: Launch Successful

Launch date: March 25, 1982, 9:50 a.m. UTC

Rocket: Tsiklon-3

Launch pad: 32/1

Location: Plesetsk Cosmodrome, Russian Federation

...

Latest news about this satellite

There are no fresh news available about this satellite. Check back as we update our databases every day.


Newsletter sign-up

Weekly statistics, charts and insights to help you stay on top of the space industry.